Regional Weather Roundup
Issued by NWS

Home | Current Version | Previous Version | Text Only | Print | Product List | Glossary On
Versions: 1 2 3 4 5 6 7 8 9 10 11 12 13 14 15 16 17 18 19 20 21 22 23 24 25 26 27 28 29 30 31 32 33 34 35 36 37 38 39 40 41 42 43 44 45 46 47 48 49 50
000
ASUS43 KTOP 290608
RWRKS

WEATHER ROUNDUP FOR KANSAS
NATIONAL WEATHER SERVICE GOODLAND KS
100 AM CDT SUN MAR 29 2015

NOTE:  "FAIR" INDICATES FEW OR NO CLOUDS BELOW 12,000 FEET WITH NO
SIGNIFICANT WEATHER AND/OR OBSTRUCTIONS TO VISIBILITY.

KSZ001>006-013>018-027>032-041>047-290700-
NORTHWEST KANSAS

CITY           SKY/WX    TMP DP  RH WIND       PRES   REMARKS
GOODLAND       PTCLDY    59  34  39 S20       29.86S
6HR MIN TEMP:  55; 6HR MAX TEMP:  79;

HAYS           CLEAR     57  39  51 S21G28    29.85F
HILL CITY      CLEAR     59  42  53 S13G20    29.81F
6HR MIN TEMP:  59; 6HR MAX TEMP:  74;

RUSSELL        CLEAR     56  43  61 S17G24    29.84F
6HR MIN TEMP:  55; 6HR MAX TEMP:  69;

$$

KSZ061>065-074>080-084>089-290700-
SOUTHWEST KANSAS

CITY           SKY/WX    TMP DP  RH WIND       PRES   REMARKS
DODGE CITY     CLEAR     58  43  57 S22       29.91F
6HR MIN TEMP:  58; 6HR MAX TEMP:  78;

ELKHART          N/A     59  28  30 SW14        N/A
GARDEN CITY    CLEAR     56  43  61 SE16      29.88F
6HR MIN TEMP:  56; 6HR MAX TEMP:  78;

GREAT BEND     CLEAR     55  39  54 S20G26    29.88F
LIBERAL        CLEAR     55  36  47 S13       29.93F
PRATT          CLEAR     55  39  54 S17G23    29.94F
$$

KSZ066>073-081>083-090>101-290700-
SOUTHEAST KANSAS

CITY           SKY/WX    TMP DP  RH WIND       PRES   REMARKS
CHANUTE        CLEAR     42  36  79 SE10      30.05F
6HR MIN TEMP:  42; 6HR MAX TEMP:  58;

COFFEYVILLE    CLEAR     47  41  80 SE9       30.05F
6HR MIN TEMP:  45; 6HR MAX TEMP:  63;

HUTCHINSON     CLEAR     53  40  61 SE13      29.94F
6HR MIN TEMP:  53; 6HR MAX TEMP:  70;

MEDICINE LODGE   N/A     53  41  63 SE8       29.95F
NEWTON         CLEAR     46  36  66 SE10      29.97F
PARSONS        CLEAR     47  39  74 SE5       30.06F
6HR MIN TEMP:  47; 6HR MAX TEMP:  61;

WICHITA INTL   CLEAR     54  39  57 S14       29.96F
6HR MIN TEMP:  54; 6HR MAX TEMP:  70;

WICHITA JABRA  CLEAR     53  40  61 S14       29.96F
6HR MIN TEMP:  53; 6HR MAX TEMP:  67;

WICHITA MCCONL CLEAR     53  40  62 SE13      29.96F
WINFIELD       CLEAR     53  41  63 SE14      29.99F
6HR MIN TEMP:  53; 6HR MAX TEMP:  69;

$$

KSZ007>012-019>026-033>040-048>060-102>105-290700-
NORTHEAST KANSAS

CITY           SKY/WX    TMP DP  RH WIND       PRES   REMARKS
CONCORDIA      CLEAR     48  39  71 SE18G26   29.86F
6HR MIN TEMP:  47; 6HR MAX TEMP:  61;

EMPORIA        CLEAR     42  35  76 SE14      29.98F
6HR MIN TEMP:  42; 6HR MAX TEMP:  58;

LAWRENCE       CLEAR     40  32  73 SE14      30.04F WCI  32
6HR MIN TEMP:  40; 6HR MAX TEMP:  52;

MANHATTAN      CLEAR     46  37  71 S12G17    29.95F
6HR MIN TEMP:  46; 6HR MAX TEMP:  60;

MARYSVILLE     CLEAR     43  34  70 S14G24    29.92F
OLATHE IND     CLEAR     38  32  79 SE17      30.06F WCI  28
6HR MIN TEMP:  38; 6HR MAX TEMP:  50;

OLATHE EXE     CLEAR     38  32  79 SE16      30.05F WCI  29
6HR MIN TEMP:  38; 6HR MAX TEMP:  49;

SALINA         CLEAR     51  40  65 SE16      29.90F
6HR MIN TEMP:  51; 6HR MAX TEMP:  66;

TOPEKA BILLARD CLEAR     42  33  70 SE15      30.01F
6HR MIN TEMP:  42; 6HR MAX TEMP:  53;

TOPEKA FORBES  CLEAR     43  33  68 SE18      30.00F
6HR MIN TEMP:  43; 6HR MAX TEMP:  54;

$$


USA.gov is the U.S. government's official web portal to all federal, state and local government web resources and services.